DW0749 Weather Reports


time (UTC)temp
F
wind
direction
speed
knots
gust
knots
rain 1hr
in
rain 24hr
in
rain mn
in
humidity
%
barometer
mb
20210920044548 56 250 0.0 0.0 0.00 0.03 0.02 78 1018.4
20210920044049 56 251 0.0 0.0 0.00 0.03 0.02 78 1018.4
20210920043549 56 250 0.0 0.0 0.00 0.04 0.02 78 1018.4
20210920043049 56 250 0.0 0.0 0.00 0.05 0.02 79 1018.3
20210920042548 56 250 0.0 0.0 0.00 0.06 0.02 78 1018.2
20210920042049 56 251 0.0 0.0 0.00 0.06 0.02 77 1018.2
20210920041544 56 251 0.0 0.0 0.00 0.07 0.02 77 1018.2
20210920041044 56 251 0.0 0.0 0.00 0.08 0.02 77 1018.2
20210920040544 56 250 0.0 0.0 0.00 0.08 0.02 77 1018.1
20210920040057 57 250 0.0 0.0 0.00 0.09 0.02 76 1018.0
20210920035545 57 250 0.0 0.0 0.00 0.09 0.02 76 1017.8
20210920035044 57 251 0.0 0.0 0.00 0.09 0.02 76 1017.7
20210920034538 57 250 0.0 0.0 0.00 0.09 0.02 76 1017.7
20210920034037 57 250 0.0 0.0 0.00 0.09 0.02 76 1017.6
20210920033534 57 251 0.0 0.0 0.00 0.09 0.02 76 1017.5
20210920033032 57 251 0.0 0.0 0.00 0.09 0.02 76 1017.4
20210920032533 57 251 0.0 0.0 0.00 0.09 0.02 76 1017.3
20210920032024 57 251 0.0 0.0 0.00 0.09 0.02 76 1017.0
20210920031525 57 250 0.0 0.0 0.00 0.09 0.02 76 1016.9
20210920031024 57 251 0.0 0.0 0.00 0.09 0.02 76 1016.9
20210920030520 57 250 0.0 0.0 0.00 0.09 0.02 76 1016.7
20210920030021 57 250 0.0 0.0 0.00 0.09 0.02 75 1016.6
20210920025515 58 250 0.0 0.0 0.00 0.09 0.02 75 1016.4
20210920025013 58 250 0.0 0.0 0.00 0.09 0.02 75 1016.2
20210920024511 58 250 0.0 0.0 0.00 0.09 0.02 76 1016.0
20210920024008 58 250 0.0 0.0 0.00 0.09 0.02 74 1016.0
20210920023509 58 251 0.0 0.0 0.00 0.09 0.02 73 1016.0
20210920023006 59 250 0.0 0.0 0.00 0.09 0.02 73 1015.9
20210920022456 59 250 0.0 0.0 0.00 0.09 0.02 73 1015.8
20210920021954 59 251 0.0 0.0 0.00 0.09 0.02 72 1015.8
20210920021452 59 250 0.0 0.0 0.00 0.09 0.02 72 1015.7
20210920021003 60 251 0.0 0.0 0.00 0.09 0.02 72 1015.6
20210920020447 60 251 0.0 0.0 0.00 0.09 0.02 71 1015.5
20210920015948 60 251 0.0 0.0 0.00 0.09 0.02 71 1015.5
20210920015447 60 250 0.0 0.0 0.00 0.09 0.02 71 1015.4
20210920014947 60 250 0.0 0.0 0.00 0.09 0.02 71 1015.3
20210920014446 60 250 0.0 0.0 0.00 0.09 0.02 70 1015.2
20210920013946 60 269 0.0 0.0 0.00 0.09 0.02 71 1015.2
20210920013441 60 269 0.0 0.0 0.00 0.09 0.02 70 1015.2
20210920012939 60 269 0.0 0.0 0.00 0.09 0.02 70 1015.1
20210920012437 61 269 0.0 0.0 0.00 0.09 0.02 70 1015.1
20210920011935 61 308 0.0 0.0 0.00 0.09 0.02 70 1015.0
20210920011434 61 308 0.0 0.0 0.00 0.14 0.02 70 1015.0
20210920010929 61 327 0.0 0.0 0.00 0.15 0.02 72 1015.0
20210920010428 61 327 0.0 1.7 0.00 0.17 0.02 73 1015.0
20210920005924 61 327 0.0 1.7 0.00 0.17 0.02 72 1014.9
20210920005423 62 246 0.0 0.0 0.00 0.19 0.02 71 1014.7
20210920004923 62 246 0.0 0.0 0.00 0.19 0.02 70 1014.6
20210920004417 61 246 0.0 1.7 0.00 0.19 0.02 70 1014.6
20210920003914 61 248 0.0 1.7 0.00 0.20 0.02 68 1014.6
20210920003413 61 270 0.0 1.7 0.00 0.20 0.02 67 1014.5
20210920002910 62 271 0.0 3.5 0.00 0.20 0.02 67 1014.5
20210920002411 62 277 0.0 3.5 0.00 0.20 0.02 65 1014.5
20210920001905 62 70 0.0 0.0 0.00 0.20 0.02 66 1014.3
20210920001402 62 250 0.0 0.0 0.00 0.20 0.02 66 1014.2
20210920000903 63 250 0.0 3.5 0.00 0.20 0.02 65 1014.3
20210920000403 63 238 0.0 3.5 0.00 0.20 0.02 64 1014.3
20210919235901 63 259 0.0 2.6 0.00 0.20 0.02 63 1014.1
20210919235401 63 241 0.0 2.6 0.00 0.20 0.02 64 1014.1
20210919234855 63 254 0.0 2.6 0.00 0.20 0.02 64 1013.9
20210919234352 64 182 0.0 4.3 0.00 0.20 0.02 64 1013.9
20210919233857 64 219 0.9 4.3 0.00 0.20 0.02 64 1013.9
20210919233348 64 257 0.0 2.6 0.00 0.20 0.02 63 1013.8
20210919232849 64 246 0.0 1.7 0.00 0.20 0.02 65 1013.7
20210919232343 64 275 0.0 2.6 0.00 0.20 0.02 63 1013.7
20210919231843 64 276 0.0 2.6 0.00 0.20 0.02 63 1013.7
20210919231343 64 280 0.0 0.0 0.00 0.20 0.02 65 1013.6
20210919230840 63 254 0.9 3.5 0.00 0.20 0.02 65 1013.5
20210919230341 63 282 0.9 3.5 0.00 0.20 0.02 64 1013.5
20210919225831 63 242 0.0 3.5 0.00 0.20 0.02 67 1013.4
20210919225328 63 111 0.0 4.3 0.00 0.20 0.02 67 1013.5
20210919224828 63 268 0.0 4.3 0.00 0.20 0.02 68 1013.5
20210919224329 62 126 0.0 2.6 0.00 0.20 0.02 72 1013.5
20210919223829 62 292 0.0 0.0 0.00 0.20 0.02 73 1013.4
20210919223323 62 292 0.0 0.0 0.00 0.20 0.02 72 1013.4
20210919222820 63 291 0.0 0.0 0.00 0.20 0.02 71 1013.4
20210919222320 63 291 0.0 0.0 0.00 0.20 0.02 73 1013.4
20210919221821 63 291 0.0 1.7 0.00 0.20 0.02 73 1013.4
20210919221318 63 306 0.0 1.7 0.00 0.20 0.02 73 1013.2
20210919220818 62 258 0.0 1.7 0.00 0.20 0.02 74 1013.2
20210919220312 62 325 0.0 3.5 0.00 0.20 0.02 75 1013.3
20210919215816 62 269 0.0 3.5 0.00 0.20 0.02 75 1013.3
20210919215313 62 270 0.0 0.0 0.00 0.20 0.02 77 1013.2
20210919214310 61 236 0.0 0.0 0.00 0.20 0.02 77 1013.3
20210919213805 62 236 0.0 0.0 0.00 0.20 0.02 75 1013.2
20210919213303 62 236 0.0 0.0 0.00 0.20 0.02 75 1013.1
20210919212803 62 277 0.0 0.0 0.00 0.20 0.02 76 1013.1
20210919212305 62 110 0.0 1.7 0.00 0.20 0.02 76 1013.2
20210919211804 62 110 0.0 1.7 0.00 0.20 0.02 76 1013.1
20210919211300 61 88 0.0 0.0 0.00 0.20 0.02 77 1012.9
20210919210753 61 297 0.0 2.6 0.00 0.20 0.02 78 1012.8
20210919210254 61 294 0.0 2.6 0.00 0.20 0.02 77 1012.8
20210919205753 61 283 0.0 1.7 0.00 0.20 0.02 77 1012.8
20210919205251 61 283 0.0 1.7 0.00 0.20 0.02 77 1012.7
20210919205030 61 107 0.0 1.7 0.00 0.20 0.02 78 1012.8
20210919204248 61 83 0.0 1.7 0.00 0.20 0.02 80 1012.7
20210919203746 60 102 0.0 0.0 0.00 0.20 0.02 83 1012.8
20210919203247 59 102 0.0 0.0 0.00 0.20 0.02 86 1012.6
20210919202747 59 284 0.0 0.9 0.00 0.20 0.02 87 1012.6
20210919202247 58 284 0.0 0.9 0.00 0.20 0.02 87 1012.5
20210919201747 58 94 0.9 6.1 0.00 0.20 0.02 87 1012.5
20210919201247 58 94 0.0 6.1 0.00 0.20 0.02 87 1012.6
20210919200737 58 86 0.0 0.9 0.00 0.20 0.02 87 1012.5
20210919200237 58 95 0.0 0.0 0.00 0.20 0.02 88 1012.5
20210919195734 58 95 0.0 0.0 0.00 0.20 0.02 90 1012.4
20210919195233 58 95 0.0 4.3 0.00 0.20 0.02 89 1012.3
20210919194735 58 95 0.9 4.3 0.00 0.20 0.02 89 1012.3
20210919194225 58 86 0.0 5.2 0.00 0.20 0.02 88 1012.3
20210919193720 58 88 0.0 5.2 0.00 0.20 0.02 88 1012.2
20210919193221 57 124 0.9 7.0 0.00 0.20 0.02 89 1012.1
20210919192720 57 83 0.9 7.0 0.01 0.20 0.02 89 1012.1
20210919192219 57 77 0.9 5.2 0.01 0.20 0.02 88 1012.1
20210919191713 58 180 0.0 0.0 0.01 0.20 0.02 89 1012.1
20210919191211 58 180 0.0 0.0 0.01 0.20 0.02 89 1011.9
20210919190709 57 153 0.0 0.0 0.02 0.20 0.02 92 1011.9
20210919190207 57 152 0.0 2.6 0.02 0.20 0.02 94 1011.8
20210919185707 56 82 0.0 2.6 0.02 0.20 0.02 95 1011.7
20210919185200 56 0 0.0 0.0 0.02 0.20 0.02 95 1011.8
20210919184701 56 313 0.0 0.0 0.02 0.20 0.02 95 1011.7
20210919184156 56 313 0.0 0.0 0.02 0.20 0.02 95 1011.5
20210919183655 56 313 0.0 0.0 0.02 0.20 0.02 95 1011.5
20210919183155 55 313 0.0 2.6 0.02 0.20 0.02 95 1011.4
20210919182649 55 313 0.0 2.6 0.01 0.20 0.02 95 1011.3
20210919181645 55 36 0.0 0.0 0.01 0.20 0.02 95 1011.2
20210919181143 55 36 0.0 0.0 0.01 0.20 0.02 95 1011.2
20210919180642 55 36 0.0 0.0 0.00 0.19 0.01 95 1011.1
20210919180137 54 36 0.0 0.0 0.00 0.19 0.01 95 1011.2
20210919175637 54 36 0.0 0.0 0.00 0.19 0.01 95 1011.1
20210919175133 54 36 0.0 0.0 0.00 0.19 0.01 95 1011.0
20210919174631 54 36 0.0 0.0 0.00 0.19 0.01 95 1011.1
20210919174131 54 36 0.0 0.0 0.00 0.19 0.01 95 1011.0
20210919173621 54 36 0.0 0.0 0.00 0.19 0.01 95 1010.9
20210919173120 53 36 0.0 0.0 0.00 0.19 0.01 95 1010.7
20210919172619 53 36 0.0 0.0 0.00 0.19 0.01 95 1010.7
20210919172118 53 36 0.0 0.0 0.00 0.19 0.01 95 1010.7
20210919171617 53 36 0.0 0.0 0.00 0.19 0.01 95 1010.6
20210919171109 53 36 0.0 0.0 0.00 0.19 0.01 95 1010.6
20210919170605 53 36 0.0 0.0 0.00 0.19 0.01 95 1010.5
20210919170112 53 36 0.0 0.0 0.00 0.19 0.01 95 1010.4
20210919165601 53 36 0.0 0.0 0.00 0.19 0.01 95 1010.4
20210919165059 52 36 0.0 0.0 0.00 0.19 0.01 95 1010.3
20210919164601 52 36 0.0 0.0 0.00 0.19 0.01 95 1010.2
20210919164100 52 36 0.0 0.0 0.00 0.19 0.01 95 1010.2
20210919163558 52 36 0.0 0.0 0.00 0.19 0.01 95 1010.0
20210919163050 52 36 0.0 0.0 0.00 0.19 0.01 95 1010.0
20210919162541 52 36 0.0 0.0 0.00 0.19 0.01 95 1009.8
20210919162035 52 36 0.0 0.0 0.00 0.19 0.01 95 1009.8
20210919161535 52 36 0.0 0.0 0.00 0.19 0.01 95 1009.7
20210919161035 52 36 0.0 0.0 0.00 0.19 0.01 95 1009.7
20210919160538 52 36 0.0 0.0 0.00 0.19 0.01 95 1009.8
20210919160048 52 36 0.0 0.0 0.00 0.19 0.01 95 1009.7
20210919155533 52 36 0.0 0.0 0.00 0.19 0.01 95 1009.7
20210919155031 52 36 0.0 0.0 0.00 0.19 0.01 95 1009.6
20210919154531 52 36 0.0 0.0 0.00 0.19 0.01 95 1009.6
20210919154031 52 36 0.0 0.0 0.00 0.19 0.01 95 1009.5
20210919153531 51 36 0.0 0.0 0.00 0.19 0.01 95 1009.4
20210919153031 51 36 0.0 0.0 0.00 0.19 0.01 95 1009.2
20210919152529 51 36 0.0 0.0 0.00 0.19 0.01 95 1009.0
20210919152029 51 36 0.0 0.0 0.00 0.19 0.01 95 1008.9
20210919151527 51 36 0.0 0.0 0.00 0.19 0.01 95 1009.0
20210919151027 51 36 0.0 0.0 0.00 0.19 0.01 95 1008.9
20210919150527 51 36 0.0 0.0 0.00 0.19 0.01 95 1008.9
20210919150040 51 36 0.0 0.0 0.00 0.19 0.01 95 1009.0
20210919145525 51 36 0.0 0.0 0.00 0.19 0.01 95 1008.9
20210919145024 51 36 0.0 0.0 0.00 0.19 0.01 95 1008.8
20210919144524 51 36 0.0 0.0 0.00 0.19 0.01 95 1008.7
20210919144023 51 36 0.0 0.0 0.00 0.19 0.01 95 1008.8
20210919143523 51 36 0.0 0.0 0.00 0.19 0.01 95 1008.7
20210919143024 51 36 0.0 0.0 0.00 0.19 0.01 95 1008.6
20210919142521 51 36 0.0 0.0 0.00 0.19 0.01 95 1008.5
20210919142013 51 36 0.0 0.0 0.00 0.19 0.01 95 1008.5
20210919141511 51 36 0.0 0.0 0.00 0.19 0.01 95 1008.3
20210919141012 50 36 0.0 0.0 0.00 0.19 0.01 95 1008.2
20210919140515 50 36 0.0 0.0 0.00 0.19 0.01 95 1008.1
20210919140016 50 36 0.0 0.0 0.00 0.19 0.01 95 1008.0
20210919135511 50 36 0.0 0.0 0.00 0.19 0.01 95 1007.9
20210919135009 50 36 0.0 0.0 0.00 0.19 0.01 95 1007.8
20210919134507 50 36 0.0 0.0 0.00 0.19 0.01 95 1007.8
20210919134007 50 36 0.0 0.0 0.00 0.19 0.01 95 1007.9
20210919133508 50 36 0.0 0.0 0.00 0.19 0.01 95 1007.8
20210919133007 50 36 0.0 0.0 0.00 0.19 0.01 94 1007.7
20210919132508 50 36 0.0 0.0 0.00 0.19 0.01 94 1007.7
20210919132007 50 36 0.0 0.0 0.00 0.19 0.01 94 1007.7
20210919131459 50 36 0.0 0.0 0.00 0.19 0.01 95 1007.5
20210919130951 50 36 0.0 0.0 0.00 0.19 0.01 95 1007.4
20210919130445 50 36 0.0 0.0 0.00 0.19 0.01 94 1007.4
20210919125945 50 36 0.0 0.0 0.00 0.19 0.01 94 1007.2
20210919125445 50 36 0.0 0.0 0.00 0.19 0.01 94 1007.2
20210919124946 50 36 0.0 0.0 0.00 0.19 0.01 94 1007.0
20210919124445 50 36 0.0 0.0 0.00 0.19 0.01 94 1007.0
20210919123943 50 36 0.0 0.0 0.00 0.19 0.01 94 1006.9
20210919123441 50 36 0.0 0.0 0.00 0.19 0.01 94 1007.0
20210919122944 50 36 0.0 0.0 0.00 0.19 0.01 94 1007.0
20210919122431 50 36 0.0 0.0 0.00 0.19 0.01 94 1006.9
20210919121931 50 36 0.0 0.0 0.00 0.19 0.01 94 1006.8
20210919121429 50 36 0.0 0.0 0.00 0.19 0.01 94 1006.7
20210919120930 50 36 0.0 0.0 0.00 0.19 0.01 94 1006.7
20210919120430 50 36 0.0 0.0 0.00 0.19 0.01 94 1006.6
20210919115927 50 36 0.0 0.0 0.00 0.19 0.01 94 1006.5
20210919115427 51 36 0.0 0.0 0.00 0.19 0.01 94 1006.5
20210919114917 51 36 0.0 0.0 0.00 0.19 0.01 94 1006.4
20210919114415 51 36 0.0 0.0 0.00 0.19 0.01 94 1006.4
20210919113919 51 36 0.0 0.0 0.00 0.19 0.01 94 1006.3
20210919113415 51 36 0.0 0.0 0.00 0.19 0.01 94 1006.2
20210919112916 51 36 0.0 0.0 0.00 0.19 0.01 94 1006.2
20210919112413 51 36 0.0 0.0 0.00 0.19 0.01 94 1006.1
20210919111913 51 36 0.0 0.0 0.00 0.19 0.01 94 1006.1
20210919111409 51 36 0.0 0.0 0.00 0.19 0.01 94 1006.1
20210919110909 51 36 0.0 0.0 0.00 0.19 0.01 94 1006.1
20210919110406 51 36 0.0 0.0 0.00 0.19 0.01 94 1006.0
20210919105909 51 36 0.0 0.0 0.00 0.19 0.01 94 1006.1
20210919105407 51 36 0.0 0.0 0.00 0.19 0.01 94 1006.0
20210919104905 51 36 0.0 0.0 0.00 0.19 0.01 94 1005.9
20210919104405 51 36 0.0 0.0 0.00 0.19 0.01 94 1005.9
20210919103855 51 36 0.0 0.0 0.00 0.19 0.01 94 1005.9
20210919103353 51 36 0.0 0.0 0.00 0.19 0.01 94 1005.8
20210919102852 51 36 0.0 0.0 0.00 0.19 0.01 94 1005.8
20210919102349 51 36 0.0 0.0 0.00 0.19 0.01 94 1005.7
20210919101850 51 36 0.0 0.0 0.00 0.19 0.01 94 1005.7
20210919101347 51 36 0.0 0.0 0.00 0.19 0.01 94 1005.8
20210919100845 51 36 0.0 0.0 0.00 0.19 0.01 94 1005.7
20210919100345 51 36 0.0 0.0 0.00 0.19 0.01 94 1005.6
20210919095846 51 36 0.0 0.0 0.00 0.19 0.01 94 1005.6
20210919095345 51 36 0.0 0.0 0.00 0.19 0.01 94 1005.5
20210919094845 51 36 0.0 0.0 0.00 0.19 0.01 94 1005.5
20210919094344 51 36 0.0 0.0 0.01 0.19 0.01 94 1005.4
20210919093846 51 37 0.0 0.0 0.01 0.19 0.01 94 1005.4
20210919093339 51 37 0.0 0.0 0.01 0.19 0.01 94 1005.3
20210919092835 51 37 0.0 0.0 0.01 0.19 0.01 94 1005.3
20210919092333 51 37 0.0 0.0 0.01 0.20 0.01 94 1005.3
20210919091831 51 37 0.0 0.0 0.01 0.20 0.01 94 1005.2
20210919091330 51 37 0.0 0.0 0.01 0.22 0.01 94 1005.2
20210919090825 51 37 0.0 0.0 0.01 0.24 0.01 94 1005.1
20210919090321 52 37 0.0 0.0 0.01 0.24 0.01 94 1005.1
20210919085820 52 37 0.0 0.0 0.01 0.25 0.01 94 1005.0
20210919085318 52 37 0.0 0.0 0.01 0.25 0.01 94 1004.9
20210919084821 52 37 0.0 0.0 0.00 0.24 0.01 94 1004.8
20210919084311 52 37 0.0 0.0 0.00 0.25 0.00 94 1004.8
20210919083810 52 37 0.0 0.0 0.00 0.25 0.00 94 1004.8
20210919083307 52 37 0.0 0.0 0.00 0.27 0.00 94 1004.9
20210919082805 52 37 0.0 0.0 0.00 0.27 0.00 94 1004.9
20210919082305 52 37 0.0 0.0 0.00 0.28 0.00 94 1004.9
20210919081800 52 37 0.0 0.0 0.00 0.28 0.00 94 1004.9
20210919081257 52 37 0.0 0.0 0.00 0.28 0.00 94 1004.9
20210919080755 52 37 0.0 0.0 0.00 0.28 0.00 94 1004.8
20210919080256 52 37 0.0 0.0 0.00 0.29 0.00 94 1004.8
20210919075751 52 37 0.0 0.0 0.00 0.29 0.29 94 1004.8
20210919075243 52 37 0.0 0.0 0.00 0.30 0.29 94 1004.8
20210919074735 52 37 0.0 0.0 0.00 0.30 0.29 94 1004.8
20210919074227 53 37 0.0 0.0 0.00 0.30 0.29 94 1004.8
20210919073723 53 36 0.0 0.0 0.00 0.31 0.29 94 1004.7
20210919073223 53 36 0.0 0.0 0.00 0.31 0.29 94 1004.6
20210919072723 53 36 0.0 0.0 0.00 0.33 0.29 94 1004.6
20210919072221 53 36 0.0 0.0 0.00 0.33 0.29 94 1004.6
20210919071719 53 36 0.0 0.0 0.00 0.33 0.29 94 1004.6
20210919071217 53 37 0.0 0.0 0.00 0.33 0.29 94 1004.7
20210919070716 53 32 0.0 0.0 0.00 0.33 0.29 94 1004.7
20210919070213 53 32 0.0 0.0 0.00 0.33 0.29 94 1004.7
20210919065714 53 32 0.0 0.0 0.00 0.34 0.29 94 1004.7
20210919065203 53 32 0.0 0.0 0.00 0.34 0.29 94 1004.5
20210919064701 53 32 0.0 0.0 0.00 0.34 0.29 94 1004.5
20210919064159 53 32 0.0 0.0 0.00 0.34 0.29 94 1004.4
20210919063659 53 32 0.0 0.0 0.00 0.34 0.29 94 1004.4
20210919063157 53 32 0.0 0.0 0.00 0.34 0.29 94 1004.3
20210919062658 53 32 0.0 0.0 0.00 0.34 0.29 94 1004.2
20210919062147 53 32 0.0 0.0 0.00 0.34 0.29 94 1004.3
20210919061645 53 32 0.0 0.0 0.00 0.35 0.29 94 1004.2
20210919061143 53 32 0.0 0.0 0.00 0.35 0.29 93 1004.0
20210919060643 53 32 0.0 0.0 0.00 0.35 0.29 93 1004.0
20210919060143 53 32 0.0 0.0 0.00 0.35 0.29 93 1004.0
20210919055641 53 32 0.0 0.0 0.00 0.35 0.29 93 1003.9
20210919055131 53 34 0.0 0.0 0.00 0.35 0.29 93 1003.8
20210919054631 53 336 0.0 0.0 0.00 0.35 0.29 93 1003.8
20210919054132 53 336 0.0 0.0 0.01 0.35 0.29 93 1003.7
20210919053630 53 336 0.0 0.0 0.02 0.35 0.29 93 1003.7
20210919053127 53 336 0.0 0.0 0.02 0.35 0.29 93 1003.6
20210919052628 53 336 0.0 0.0 0.03 0.36 0.29 93 1003.7
20210919052119 53 336 0.0 0.0 0.04 0.36 0.29 93 1003.6
20210919051620 53 336 0.0 0.0 0.05 0.37 0.29 93 1003.6
20210919051117 53 336 0.0 0.0 0.06 0.37 0.29 93 1003.6
20210919050617 53 336 0.0 0.0 0.06 0.38 0.29 93 1003.5
20210919050123 53 336 0.0 0.0 0.06 0.39 0.29 93 1003.5
20210919045616 53 336 0.0 0.0 0.06 0.39 0.29 93 1003.5
20210919045115 53 336 0.0 0.0 0.06 0.39 0.29 93 1003.5